Hourly Data Report for July 24, 2021

TORONTO CITY
ONTARIO
Current Station Operator: ECCC - MSC

43°40'00.000" N
79°24'00.000" W
112.50 m
6158355
71508
XTO

Download Data

Hourly Data (July 2021)
Hourly Data Report for July 24, 2021
TIME
LST
Temp Definition
°C
Dew Point Definition
°C
Rel Hum Definition
%
Precip. Amount Definition
mm

Wind Dir Definition
10's deg

Wind Spd Definition
km/h
Visibility Definition
km
Stn Press Definition
kPa
Hmdx Definition


Wind Chill Definition


Weather Definition


00:00 19.8 14.8 73 0.0       100.58     LegendNANA
01:00 19.1 15.0 77 0.0       100.55     LegendNANA
02:00 18.5 15.1 80 0.0       100.53     LegendNANA
03:00 18.5 15.3 82 0.0       100.50     LegendNANA
04:00 18.4 15.3 83 0.0       100.44     LegendNANA
05:00 18.4 16.0 86 0.0       100.40     LegendNANA
06:00 20.0 17.6 86 0.0       100.37 26   LegendNANA
07:00 19.9 17.5 86 0.0       100.34     LegendNANA
08:00 21.8 16.3 71 0.0       100.33 27   LegendNANA
09:00 22.2 15.3 65 0.0       100.32 26   LegendNANA
10:00 23.2 16.1 64 0.0       100.27 28   LegendNANA
11:00 22.4 16.6 70 0.0       100.23 27   LegendNANA
12:00 22.8 17.0 70 0.0       100.21 28   LegendNANA
13:00 22.0 18.5 80 0.1       100.12 28   LegendNANA
14:00 23.3 17.3 69 0.1       100.04 29   LegendNANA
15:00 20.7 18.9 90 2.6       99.93 27   LegendNANA
16:00 21.2 19.9 92 1.2       99.85 29   LegendNANA
17:00 21.5 19.9 90 0.0       99.73 29   LegendNANA
18:00 22.0 20.1 89 0.0       99.66 30   LegendNANA
19:00 21.6 20.0 91 0.5       99.55 29   LegendNANA
20:00 22.0 19.9 88 0.0       99.42 29   LegendNANA
21:00 22.3 19.5 85 0.1       99.47 29   LegendNANA
22:00 21.8 19.5 87 0.5       99.40 29   LegendNANA
23:00 21.0 20.2 95 12.4       99.41 29   LegendNANA

Notes on Data Quality.

Legend

  • E = Estimated
  • M = Missing
  • NA = Not Available*
  • [empty] = Indicates an unobserved value
Date modified: